Location: Unspecified
(0.0000°N, 0.0000°E)
Time: 15:21:11
(UTC+00:00)

Tiros 1 - All Passes

Search period start: 27 July 2016 00:00
Search period end: 06 August 2016 00:00
Orbit: 630 x 665 km, 48.4° (Epoch: 26 July)

Date Brightness Start Highest point End Pass type
(mag) Time Alt. Az. Time Alt. Az. Time Alt. Az.
27 Jul - 01:54:29 10° NNE 01:56:12 12° NE 01:57:55 10° ENE night (unlit)
27 Jul - 03:33:42 10° NW 03:38:19 55° SW 03:42:55 10° SSE night (unlit)
27 Jul - 14:05:48 10° S 14:09:19 21° SE 14:12:50 10° E daylight
27 Jul - 15:47:15 10° WSW 15:51:21 30° NW 15:55:29 10° N daylight
28 Jul - 02:18:09 10° NNW 02:22:33 37° NE 02:26:54 10° ESE night (unlit)
28 Jul - 04:01:33 10° W 04:04:36 17° SW 04:07:38 10° S night (unlit)
28 Jul - 14:30:55 10° SSW 14:35:34 70° SE 14:40:16 10° NE daylight
29 Jul - 01:05:45 10° NE 01:06:40 10° NE 01:07:33 10° ENE night (unlit)
29 Jul - 02:44:06 10° NW 02:48:47 62° SW 02:53:27 10° SSE night (unlit)
29 Jul - 13:16:31 10° S 13:19:47 19° SE 13:23:03 10° E daylight
29 Jul - 14:57:37 10° WSW 15:01:49 33° NW 15:06:04 10° NNE daylight
30 Jul - 01:28:43 10° NNW 01:33:01 34° NE 01:37:17 10° ESE night (unlit)
30 Jul - 03:11:44 10° W 03:15:04 19° SW 03:18:23 10° S night (unlit)
30 Jul - 13:41:27 10° SSW 13:46:03 62° SE 13:50:41 10° NE daylight
30 Jul - 15:27:37 10° NW 15:28:11 10° NW 15:28:43 10° NW daylight
31 Jul - 01:54:31 10° NW 01:59:16 70° SW 02:03:58 10° SSE night (unlit)
31 Jul - 12:27:16 10° S 12:30:15 17° SE 12:33:14 10° E daylight
31 Jul - 14:07:59 10° WSW 14:12:18 37° NW 14:16:38 10° NNE daylight
01 Aug - 00:39:17 10° N 00:43:29 30° NE 00:47:39 10° ESE night (unlit)
01 Aug - 02:21:57 10° W 02:25:31 21° SW 02:29:06 10° S night (unlit)
01 Aug - 12:51:59 10° SSW 12:56:32 55° SE 13:01:06 10° NE daylight
01 Aug - 14:37:04 10° WNW 14:38:38 11° NW 14:40:12 10° NNW daylight
02 Aug - 01:04:58 10° NW 01:09:44 79° SW 01:14:29 10° SE night (unlit)
02 Aug - 11:38:05 10° SSE 11:40:43 15° SE 11:43:22 10° E daylight
02 Aug - 13:18:23 10° WSW 13:22:46 41° NW 13:27:11 10° NNE daylight
02 Aug - 23:49:53 10° N 23:53:57 27° NE 23:57:58 10° ESE night (unlit)
03 Aug - 01:32:12 10° WNW 01:36:00 23° SW 01:39:47 10° S night (unlit)
03 Aug - 12:02:32 10° SSW 12:07:01 48° SE 12:11:30 10° NE daylight
03 Aug - 13:46:59 10° WNW 13:49:05 13° NW 13:51:13 10° NNW daylight
04 Aug - 00:15:25 10° NW 00:20:12 88° SW 00:24:58 10° SE night (unlit)
04 Aug - 10:48:58 10° SSE 10:51:11 13° SE 10:53:24 10° ESE daylight
04 Aug - 12:28:48 10° SW 12:33:15 46° NW 12:37:43 10° NNE daylight
04 Aug - 23:00:30 10° N 23:04:24 25° NE 23:08:17 10° ESE night (unlit)
05 Aug - 00:42:28 10° WNW 00:46:27 26° SW 00:50:26 10° S night (unlit)
05 Aug - 11:13:06 10° SSW 11:17:29 43° SE 11:21:54 10° ENE daylight
05 Aug - 12:57:03 10° W 12:59:33 14° NW 13:02:05 10° NNW daylight
05 Aug - 23:25:52 10° NW 23:30:40 82° NE 23:35:26 10° SE night (unlit)
